Theta_e
350 352 353 353 353 353 353 353 354 353 353 353 352 352 353 352 352 352 351 351 350 349 349 348 348 349 348 347 346 347 348 349 347 346 347 343 340 342 345 344 345 346 346 343 339 337 340 343 345 346 347 346 345 344 344 344 344 343 342 343 342 342 342 342 342 342 342 343 343 344 344 344 342 341 341 341 340 340 341 342 343 342 342 341 341
352 353 354 354 354 354 353 353 354 353 353 353 353 353 352 352 352 352 351 351 351 350 350 349 348 348 348 347 346 348 349 349 348 346 344 342 341 342 344 344 345 346 347 346 344 341 341 342 343 343 345 346 345 345 345 344 345 344 344 343 343 343 343 343 342 343 343 343 343 343 344 343 343 343 342 342 342 342 342 342 342 342 342 342 341
353 354 355 355 354 354 354 354 354 353 353 353 352 352 353 353 353 352 351 351 350 350 349 349 349 348 348 347 346 348 349 349 349 348 345 342 342 342 343 344 344 346 346 346 346 345 343 343 342 341 342 343 344 345 345 345 345 345 345 344 344 344 344 344 343 343 344 344 343 343 343 343 343 343 343 343 342 342 342 341 342 342 342 342 341
354 354 355 355 354 354 354 354 353 353 353 353 353 353 354 354 354 353 352 352 351 350 349 348 348 348 348 348 347 347 348 349 349 349 346 344 343 342 343 344 345 345 346 346 346 346 345 345 344 341 340 341 343 344 345 346 346 346 346 346 345 344 345 345 344 343 344 344 343 342 343 342 341 342 342 341 341 341 341 341 342 342 342 342 342
354 355 355 355 355 355 355 354 354 354 355 355 354 354 354 355 354 353 353 353 352 352 352 350 348 348 348 348 346 346 347 348 349 349 347 346 345 345 345 345 345 345 346 347 346 346 346 346 346 344 343 342 343 344 344 344 345 346 346 346 346 346 346 344 344 343 343 343 343 343 342 342 341 341 341 342 342 342 341 342 342 342 342 342 342
354 355 355 355 356 356 355 355 355 355 356 357 355 354 354 355 354 353 353 351 348 348 350 351 349 347 348 348 347 346 347 347 347 347 347 347 347 347 347 345 345 345 346 346 346 346 346 346 346 346 345 344 344 345 344 344 344 344 344 346 345 345 346 345 343 343 343 343 342 342 342 342 342 341 341 341 342 342 342 342 342 342 342 342 342
354 355 355 356 356 356 356 356 356 356 357 356 354 354 354 352 351 349 347 342 338 339 342 348 349 348 347 348 346 346 347 347 347 347 347 348 348 348 348 346 345 345 345 346 347 346 346 347 347 347 346 345 346 345 344 344 344 345 344 344 345 345 346 345 344 343 343 343 342 342 342 342 342 341 342 342 342 342 342 342 342 342 342 342 343
355 355 356 356 356 357 357 355 356 358 358 355 354 354 351 349 348 343 340 336 334 336 339 344 347 348 347 347 347 346 347 347 347 348 348 349 348 348 348 346 346 345 345 346 346 346 346 347 348 348 347 347 347 346 346 345 345 346 345 346 345 346 346 345 345 345 344 344 343 343 343 342 343 342 342 342 343 343 342 343 343 343 343 343 343
356 357 357 356 357 358 357 357 357 357 357 356 354 354 350 349 347 341 336 335 333 335 336 337 341 344 346 347 347 345 346 347 348 348 349 349 349 348 349 347 346 345 345 345 345 346 346 346 347 347 348 348 348 347 347 347 347 347 347 347 347 347 347 346 345 345 345 345 345 345 344 344 344 343 343 343 344 344 344 344 344 344 344 344 344
355 356 356 356 357 357 357 357 357 358 357 355 355 354 350 349 348 341 336 334 335 336 336 335 337 340 344 347 347 346 346 346 346 347 348 348 349 350 350 348 348 346 345 345 344 345 345 346 347 347 347 347 348 347 347 348 348 348 348 348 348 347 347 346 346 345 345 345 345 345 345 345 344 344 344 344 344 344 345 345 345 345 344 345 345
353 353 353 355 357 357 356 355 356 358 356 354 355 354 351 349 347 343 337 334 337 339 338 339 340 341 343 345 345 345 346 345 344 345 347 347 348 351 351 349 349 349 347 346 345 345 344 345 346 346 347 347 347 347 347 347 347 347 347 347 347 347 347 347 346 345 345 345 344 344 344 345 345 345 345 345 345 344 344 344 344 344 344 344 344
349 349 350 353 356 356 355 355 356 357 355 353 355 354 351 349 346 342 336 332 336 340 340 341 342 343 343 344 344 345 346 345 345 346 347 348 349 351 351 351 350 350 349 348 347 345 344 344 344 345 345 346 346 346 347 347 346 347 347 347 347 346 346 346 346 346 346 346 345 345 344 344 344 344 344 344 344 344 344 344 344 344 344 344 344
345 344 348 353 355 356 355 354 356 357 355 353 356 355 352 349 344 338 336 334 335 338 341 341 341 343 343 345 346 347 347 345 346 347 348 349 349 350 351 351 350 349 349 350 349 346 344 344 343 343 344 344 345 346 347 346 345 346 346 345 345 345 345 346 346 346 345 345 344 343 343 342 343 342 343 344 344 344 344 343 343 344 344 344 344
347 342 344 349 354 356 356 355 355 355 356 355 356 355 353 349 343 339 341 341 335 335 339 340 341 341 342 343 344 347 347 346 347 348 349 350 348 349 350 349 349 349 350 350 350 350 347 345 344 345 344 342 343 345 345 345 345 345 344 344 345 344 344 345 345 345 344 342 340 337 336 336 336 336 337 338 338 339 341 341 341 342 342 341 341
351 346 341 344 352 356 355 356 356 355 357 357 356 354 353 351 347 344 346 342 335 334 337 339 340 341 342 344 344 346 346 345 349 349 349 350 349 348 348 348 348 348 349 349 349 351 349 347 347 348 345 342 342 343 343 343 344 344 343 344 345 344 344 346 343 340 335 331 327 323 321 322 322 322 323 323 323 325 328 331 331 332 332 331 330
352 349 342 340 348 354 354 355 356 356 357 358 356 354 352 351 348 346 345 340 334 334 338 339 340 340 343 348 345 345 348 346 347 349 350 351 349 348 349 348 348 347 347 347 348 349 349 347 347 348 346 343 341 341 341 341 341 343 344 342 343 343 343 341 333 325 320 318 317 316 316 316 316 316 316 315 316 316 317 319 319 319 319 318 318
352 351 347 340 344 351 354 355 356 356 358 358 357 354 352 350 349 347 343 339 336 336 338 341 343 340 343 349 346 348 356 349 344 347 349 351 349 348 349 348 347 347 346 345 346 347 347 345 346 346 346 345 343 342 342 339 337 340 342 343 343 341 335 327 319 316 317 317 316 317 316 316 316 316 316 316 316 316 315 316 316 316 317 316 316
352 352 351 344 342 348 352 355 356 356 357 358 358 355 354 352 350 350 345 341 340 337 338 342 344 342 342 347 346 348 353 347 346 348 346 348 350 349 349 347 347 346 345 345 343 344 343 343 343 343 344 344 342 341 337 329 326 330 335 339 339 333 323 317 317 318 318 318 319 319 318 318 317 317 317 317 316 317 317 316 317 316 316 316 316
352 353 354 349 343 344 349 353 355 356 357 358 359 356 356 354 350 352 348 343 342 336 337 343 345 345 345 344 344 344 344 342 347 350 346 345 347 348 348 347 348 347 345 345 342 341 342 342 341 339 340 339 338 335 327 319 319 321 323 327 326 320 318 318 318 319 320 321 322 321 320 319 318 318 317 317 317 318 318 319 319 318 318 318 318
353 353 354 352 346 343 345 349 353 357 358 359 359 357 356 355 351 352 349 344 343 337 337 344 344 343 345 345 344 344 342 340 342 345 348 348 345 345 345 344 346 347 345 345 341 340 341 341 339 337 338 337 335 333 326 320 320 319 318 320 319 318 319 320 321 322 323 325 325 324 324 321 320 319 318 319 320 322 323 323 324 324 324 324 325
354 353 353 353 350 345 346 350 354 358 359 359 359 357 356 355 351 351 348 343 344 340 337 342 343 342 344 345 344 344 342 342 341 341 344 348 347 344 341 341 343 345 345 344 341 339 340 338 338 338 338 337 336 333 328 324 321 320 320 321 321 323 323 324 324 325 325 325 326 326 325 324 322 321 321 322 324 325 326 327 327 328 328 329 330
354 353 354 353 351 348 350 352 354 357 359 359 359 357 356 354 352 351 349 344 343 343 339 340 340 340 343 344 344 343 343 343 344 343 342 343 348 344 339 339 340 341 343 343 340 340 339 337 338 339 339 337 335 334 331 329 324 323 323 323 325 325 326 327 327 327 326 327 326 326 326 326 324 324 324 325 326 326 327 328 328 328 329 330 330
354 354 354 354 352 352 353 354 354 357 359 360 359 358 356 355 354 352 350 346 344 343 342 342 339 338 342 344 344 343 343 343 343 344 342 342 347 346 341 340 340 339 340 340 340 340 339 338 338 339 339 336 335 333 334 334 331 327 326 325 326 328 327 327 328 328 328 328 328 328 327 326 326 326 325 326 326 327 327 327 328 328 329 329 329
355 354 355 355 354 353 356 357 356 356 358 360 359 359 358 356 355 354 352 348 345 343 343 344 341 341 343 343 343 343 342 343 343 343 343 342 345 346 342 342 342 339 339 339 339 340 338 337 338 339 338 336 334 334 334 335 335 332 330 329 330 332 331 330 329 328 328 328 328 328 329 328 328 328 328 327 328 327 328 328 328 329 329 329 329
355 355 354 355 355 355 356 357 357 356 356 358 360 360 358 357 356 354 351 347 346 345 343 343 343 343 344 342 341 343 342 341 342 343 343 342 343 343 342 344 343 339 339 338 339 339 338 337 338 339 338 336 335 335 335 335 336 335 334 333 333 334 334 333 332 330 329 329 328 329 329 329 329 329 329 329 328 329 329 329 330 330 330 330 330
356 355 354 355 355 355 355 356 356 356 356 358 360 361 359 358 356 355 351 348 349 349 342 339 342 346 344 341 341 342 342 342 341 341 343 342 343 343 342 343 342 339 339 339 338 338 338 338 338 338 337 336 336 336 336 335 336 336 335 335 334 335 336 335 335 333 331 331 331 331 330 329 329 329 329 330 329 329 329 329 330 330 331 330 331
355 355 354 355 355 356 356 356 356 356 356 357 358 361 360 359 358 355 353 351 351 352 345 336 339 347 346 343 344 343 341 341 341 341 342 342 342 342 342 344 344 342 340 339 339 338 338 338 338 338 337 336 335 336 336 336 336 336 336 336 336 336 336 336 337 335 334 334 333 334 333 332 331 329 329 329 329 329 330 330 330 330 330 330 330
354 355 355 355 355 356 356 356 356 356 357 356 357 360 361 360 359 357 355 354 353 353 349 340 337 343 347 346 347 344 340 340 341 341 341 341 341 341 341 342 345 349 348 344 341 339 338 338 337 338 337 337 336 335 335 336 336 336 336 336 337 337 337 337 337 336 335 334 334 335 335 334 332 331 330 329 329 329 329 329 329 329 330 330 330
354 355 355 355 355 355 356 356 357 357 357 357 357 359 361 361 360 359 357 356 355 354 353 348 340 339 344 347 347 345 342 341 341 341 341 342 342 341 341 339 341 350 354 352 346 339 338 338 337 338 337 336 337 335 335 336 336 336 336 337 337 338 338 338 337 337 336 335 335 335 335 335 334 332 331 330 330 329 329 329 329 329 329 329 330
354 355 355 355 355 354 355 357 357 357 358 357 357 359 361 361 360 359 358 357 357 356 355 352 346 341 340 343 346 347 345 343 343 343 343 344 343 341 341 338 338 343 346 351 350 341 337 339 337 338 338 337 337 335 336 336 336 337 337 337 338 338 338 338 338 337 336 336 335 335 336 335 335 334 333 331 330 329 329 329 329 329 329 329 329
356 356 355 356 356 355 355 356 357 358 358 358 358 358 360 361 360 360 359 359 358 357 355 354 351 347 343 341 343 346 346 344 344 344 346 346 346 343 341 338 336 338 339 343 349 344 338 340 338 338 339 339 337 336 336 337 337 337 337 337 338 338 338 338 338 337 337 337 337 337 337 336 336 335 334 332 330 329 328 329 328 328 329 329 328
357 356 356 356 355 355 356 356 357 358 358 359 358 359 361 361 360 360 360 360 359 358 357 355 353 352 349 345 342 341 341 343 345 346 346 347 347 346 344 340 336 338 339 340 343 343 340 341 340 340 340 339 339 338 336 336 337 336 337 337 338 338 339 339 338 338 337 338 339 338 337 337 336 335 334 332 330 327 327 327 327 328 328 328 328
357 357 357 356 355 355 356 356 357 358 359 360 359 360 360 361 361 360 360 360 360 358 357 356 354 353 352 350 346 341 336 337 341 345 347 347 347 347 346 344 339 338 340 340 340 340 340 341 341 341 340 340 339 338 337 336 337 337 337 338 338 339 338 338 338 338 337 338 338 338 337 336 335 334 333 332 331 330 330 330 329 329 329 329 330
356 357 358 357 355 356 356 357 358 358 359 359 359 359 360 361 361 361 360 360 359 359 357 356 355 354 353 352 350 347 341 337 336 339 344 347 348 347 347 346 343 340 339 339 340 340 339 340 340 341 342 341 340 338 337 336 336 337 337 338 339 338 338 338 338 338 337 337 337 337 336 334 334 335 336 335 334 334 333 333 332 331 332 332 332
356 356 357 357 357 357 358 357 358 358 359 359 359 360 360 360 360 360 361 360 360 359 358 357 356 355 354 353 352 351 348 345 341 337 339 343 346 347 347 346 346 343 341 340 339 340 339 339 339 339 340 341 341 339 338 337 337 337 338 338 339 339 338 338 338 338 338 337 337 336 335 333 335 337 338 337 336 335 334 334 333 333 333 333 332
356 355 356 357 357 358 358 358 358 358 359 359 359 360 360 359 360 360 361 360 360 359 358 358 357 355 355 354 354 353 351 350 348 343 340 340 341 344 345 345 346 346 344 342 341 340 340 339 339 339 338 340 341 340 339 338 338 338 338 338 339 339 339 338 339 339 338 338 338 337 334 334 336 339 339 338 336 335 334 334 333 333 333 332 332
358 356 356 356 357 357 357 357 358 357 358 359 359 360 359 359 359 359 359 360 360 360 359 358 358 356 355 354 353 353 352 351 351 349 346 342 340 341 342 344 344 345 345 344 343 341 340 340 340 339 338 338 340 341 340 339 339 338 338 339 339 340 339 338 340 339 339 340 339 337 337 336 338 339 338 337 336 335 335 335 334 333 334 334 333
359 358 357 356 357 357 357 356 357 358 358 358 359 359 360 360 360 359 359 360 359 360 360 359 358 357 355 355 353 353 353 352 351 351 349 347 344 343 343 342 343 344 345 345 344 343 342 341 341 340 339 338 340 340 341 341 340 340 340 340 340 341 340 340 339 340 340 340 340 339 338 339 339 339 338 338 337 336 336 335 335 334 335 335 334
360 359 358 357 357 358 358 358 358 358 358 359 359 360 360 360 361 360 360 360 360 360 360 359 359 358 356 356 355 354 353 353 352 352 351 349 348 346 345 343 343 344 345 345 344 343 343 342 341 341 340 339 339 339 340 341 341 341 341 341 340 340 340 339 339 340 340 341 341 339 339 339 339 339 339 338 338 337 336 336 336 335 335 335 334
358 359 359 359 358 358 359 360 360 359 359 359 360 360 360 361 361 361 361 361 360 360 360 360 360 359 359 358 356 355 354 353 352 352 351 350 349 348 347 346 345 345 345 344 344 344 343 343 342 341 341 340 340 340 340 341 342 341 341 340 340 339 339 340 340 341 341 341 341 340 340 340 339 339 340 338 337 338 337 336 336 336 336 335 335
357 358 359 359 359 358 359 359 360 360 360 359 359 359 360 361 361 361 361 361 362 361 361 360 360 359 359 359 358 357 355 355 353 353 351 351 350 349 348 347 347 346 345 345 344 344 343 343 342 342 341 341 341 341 341 341 341 341 340 340 339 339 338 339 340 340 341 341 341 341 340 340 339 339 339 339 338 337 336 336 336 336 336 336 335
357 357 358 358 359 358 358 358 358 359 360 359 359 359 359 360 360 361 361 361 362 361 361 360 360 360 359 359 358 358 357 357 355 354 353 352 352 351 349 349 348 346 346 345 344 343 343 343 343 342 341 341 341 341 341 341 341 341 341 341 340 340 339 339 340 339 340 341 341 341 340 340 339 339 339 339 338 337 336 336 336 336 336 336 336
357 356 356 357 357 357 358 358 357 357 358 358 359 359 359 359 359 360 360 360 361 361 361 361 360 360 360 359 359 358 358 358 357 356 355 355 353 352 351 351 349 348 347 346 345 344 344 343 343 343 342 341 341 341 341 341 341 341 341 341 340 340 339 339 339 339 340 340 341 340 340 339 340 339 340 339 339 338 337 336 336 336 336 336 335
357 357 356 356 356 357 357 358 358 357 356 357 357 358 359 359 359 359 359 360 360 360 361 361 360 360 359 359 359 358 358 358 358 358 357 357 356 354 354 353 351 350 349 348 347 345 344 343 343 343 343 342 342 341 341 341 341 341 342 342 340 340 339 339 339 339 339 340 341 341 341 340 340 340 340 339 338 339 338 337 337 337 336 336 335
357 356 357 356 356 355 356 357 358 358 357 356 357 357 357 358 359 360 359 359 360 360 360 360 360 360 360 359 359 359 358 358 358 358 358 357 357 356 355 354 353 352 351 350 348 347 345 344 343 343 343 343 342 342 342 341 341 341 342 342 341 341 340 340 340 339 340 340 340 341 341 341 341 341 341 341 340 340 340 339 337 337 337 337 335
356 355 356 356 356 355 355 356 356 357 357 357 357 357 356 356 357 359 360 360 359 359 359 360 360 359 360 360 359 359 359 358 358 358 358 357 357 357 356 355 354 354 352 352 351 349 347 345 344 343 343 343 342 342 342 341 341 341 341 341 341 341 341 341 340 340 340 340 341 341 342 342 341 342 342 342 341 341 341 340 339 338 338 336 334
355 355 355 356 356 355 355 355 356 356 356 357 358 358 357 357 358 358 359 360 360 359 359 359 359 359 360 359 360 359 359 358 358 358 358 358 358 356 355 355 355 354 353 353 352 351 349 347 346 345 344 344 343 343 342 342 342 342 341 340 340 340 341 341 341 341 341 341 341 342 342 342 341 342 343 342 342 342 342 341 341 339 337 334 332
356 355 354 355 355 355 355 355 354 355 355 356 357 357 357 358 358 359 359 360 359 360 359 359 359 359 359 359 360 360 360 359 359 358 359 359 358 357 356 356 354 354 354 354 353 352 351 350 349 348 348 347 345 344 343 343 342 342 342 341 341 340 340 341 341 341 342 341 341 342 342 342 341 342 342 342 343 343 342 342 341 339 336 333 332
356 355 355 355 355 356 357 356 356 355 355 355 356 357 357 357 359 359 360 359 359 359 359 359 359 359 359 359 359 359 360 360 359 359 359 359 358 358 357 356 356 355 355 354 353 352 351 351 351 351 350 348 347 346 344 343 343 342 342 342 341 340 341 340 341 341 341 342 342 342 342 342 342 342 342 342 342 341 341 340 339 337 334 333 332
357 356 356 355 355 356 357 357 358 356 356 356 357 358 358 359 358 360 360 359 359 359 359 359 359 359 359 359 359 359 359 358 359 359 359 359 359 358 357 357 357 356 355 355 354 352 353 351 351 351 351 350 348 347 346 345 344 343 342 342 342 341 341 341 341 341 341 342 342 343 343 342 341 341 342 341 340 340 340 338 337 335 334 333 331
357 357 356 356 356 356 357 358 358 359 359 359 358 359 360 360 360 360 361 360 359 358 359 359 359 359 359 359 359 359 358 359 358 359 359 359 358 358 357 357 356 356 357 356 355 355 353 352 351 351 350 351 350 348 347 346 345 344 343 343 342 342 341 341 341 341 342 342 342 342 343 342 341 341 341 339 338 338 339 338 336 334 333 332 329
Wind_Speed
11 10 9 9 8 7 7 6 6 6 6 6 5 6 6 7 7 8 9 9 8 8 9 9 10 10 10 10 11 13 14 13 10 9 8 10 11 10 10 9 8 8 7 6 6 6 7 7 8 8 8 7 7 7 7 7 6 6 6 6 6 6 5 5 5 4 3 4 4 4 4 3 3 2 2 2 3 4 4 4 4 4 4 4 4
12 11 10 9 8 8 7 6 6 6 7 7 6 7 6 6 7 8 8 9 10 9 9 10 10 10 11 11 12 14 14 13 11 9 9 10 11 11 10 9 9 8 7 7 6 6 6 6 6 7 7 7 7 7 7 8 7 7 7 7 6 6 5 5 5 4 4 4 4 4 4 4 3 3 3 3 4 5 5 5 4 4 4 4 4
12 12 11 9 8 8 7 7 6 6 6 7 8 8 7 7 7 7 7 8 10 9 9 10 10 10 11 11 12 14 14 13 11 10 10 10 11 11 10 9 9 8 7 7 6 6 6 6 6 6 6 6 7 7 7 8 8 7 7 7 7 6 6 5 5 4 4 4 4 4 4 4 4 4 4 5 5 5 6 6 5 5 5 5 5
13 13 11 11 9 8 8 7 7 7 7 7 8 8 8 8 6 6 6 7 9 10 9 10 11 11 11 11 12 13 14 13 11 11 10 10 10 10 10 9 9 8 7 7 7 7 7 7 6 6 6 6 6 6 7 7 8 7 7 7 7 7 6 6 5 5 5 4 5 5 5 5 5 5 5 6 6 5 5 6 6 6 5 6 6
14 14 12 12 10 9 8 7 6 7 8 8 6 6 7 6 6 5 5 6 9 12 13 13 13 13 13 12 13 13 14 14 12 11 11 10 10 9 10 9 9 8 7 7 7 8 8 7 7 7 7 7 7 7 7 7 7 7 7 8 7 7 7 6 6 6 6 6 6 6 6 6 6 6 7 7 7 7 6 7 7 7 6 7 7
14 15 14 12 11 9 9 8 7 7 8 6 5 6 6 6 6 5 6 6 8 11 14 17 18 17 16 15 14 13 13 13 11 12 12 11 10 10 10 9 9 8 8 8 8 8 8 8 8 8 8 8 8 8 8 7 7 7 7 7 7 7 7 6 6 7 7 7 7 7 7 8 8 8 8 8 8 8 8 8 8 8 8 7 7
14 15 14 12 11 10 10 9 8 8 7 6 5 6 7 7 6 4 3 4 5 7 12 17 20 19 18 17 16 13 14 13 11 12 13 12 11 11 10 9 8 8 8 9 8 9 9 9 9 9 9 9 9 9 9 9 9 8 8 8 8 7 7 7 7 7 7 8 8 8 9 9 9 9 9 9 9 9 9 9 9 9 9 9 8
15 15 13 12 11 11 10 9 9 9 7 6 7 6 7 7 4 1 0 3 6 5 7 14 19 20 19 18 17 16 15 14 12 13 13 12 11 11 10 8 8 8 8 9 9 9 8 8 9 9 9 9 9 10 10 10 10 9 9 9 9 8 8 8 8 8 8 8 8 9 10 10 10 10 10 10 10 10 10 10 10 10 10 10 10
17 16 14 12 11 10 10 10 9 9 7 6 7 6 6 6 3 1 1 2 5 7 10 12 14 18 20 19 18 18 16 14 13 12 12 11 11 10 10 9 8 8 9 9 9 9 9 8 8 9 9 9 9 9 10 10 9 9 9 9 9 9 8 8 8 8 8 8 8 9 10 10 10 10 10 10 10 11 11 10 10 10 10 10 10
18 17 15 13 10 9 10 10 9 8 7 6 7 7 7 6 4 3 2 5 7 9 14 16 14 16 20 21 21 20 17 14 12 11 11 10 10 10 10 9 9 8 8 8 8 8 9 9 8 8 9 9 9 9 9 8 8 8 8 8 8 8 7 8 8 7 7 7 8 8 9 9 9 9 10 10 10 10 10 9 9 9 9 8 8
20 17 16 15 12 9 10 10 9 8 7 7 8 8 8 8 6 4 3 5 9 13 17 18 18 17 19 21 20 19 17 13 11 10 10 10 10 11 11 10 9 9 8 8 7 7 8 9 9 9 9 9 9 9 9 8 8 8 8 8 8 7 7 8 7 6 6 6 6 6 7 7 8 8 9 8 8 9 9 9 9 8 8 7 8
19 18 16 16 13 10 10 11 10 8 7 8 8 9 9 9 7 6 6 6 10 14 17 19 21 19 17 18 18 18 16 14 13 11 11 10 10 11 11 11 10 9 9 8 7 7 7 9 9 9 9 9 9 9 9 9 9 8 8 8 8 7 7 7 6 5 5 5 5 5 6 6 7 7 7 7 8 7 7 7 7 7 7 7 7
17 18 17 16 14 12 11 11 10 8 6 7 8 9 8 8 7 7 6 6 9 11 12 16 19 16 14 15 16 18 17 15 14 13 12 12 11 11 12 11 10 9 9 8 7 7 7 8 9 9 9 9 9 9 10 9 9 8 8 8 7 7 7 7 5 4 5 6 5 5 5 5 5 5 5 5 6 6 5 5 5 5 5 5 6
15 17 18 18 16 14 12 12 11 8 7 7 8 10 10 9 9 9 6 5 7 9 9 10 11 11 11 10 9 12 15 16 15 15 14 14 13 12 12 11 10 9 9 9 8 8 7 8 9 9 8 8 9 9 9 9 9 8 8 7 7 7 6 5 5 5 6 5 5 4 3 3 3 3 3 3 4 3 3 3 3 2 3 3 4
15 16 18 18 17 16 14 13 11 10 10 9 10 12 12 11 11 10 6 5 8 9 8 7 9 10 8 6 5 6 8 11 14 17 17 16 14 13 12 12 10 9 9 9 9 9 9 10 10 9 8 8 8 8 8 8 8 7 7 7 7 6 6 5 5 6 5 3 3 3 2 2 2 2 1 2 2 1 1 1 1 0 1 1 2
16 15 17 19 19 18 16 14 13 12 11 11 12 13 13 12 12 11 8 8 9 9 7 7 11 11 6 2 3 4 3 7 13 17 18 17 16 15 14 12 12 11 11 10 9 10 10 10 10 9 9 8 8 8 7 7 7 7 7 7 7 7 7 7 6 5 4 3 2 2 2 2 2 1 1 1 0 1 1 2 2 2 2 2 2
17 16 16 18 20 19 18 16 14 14 12 11 13 13 12 11 11 11 10 9 9 9 8 6 9 10 7 3 3 2 2 6 9 11 16 19 18 18 16 14 14 13 12 11 10 10 11 10 9 9 9 9 9 8 8 7 7 7 8 8 8 8 8 8 7 5 4 3 3 2 2 2 2 2 2 2 1 2 2 2 2 3 3 3 3
19 17 16 18 20 21 20 18 16 15 14 12 12 13 12 12 12 10 10 9 9 10 10 7 7 8 8 5 4 3 4 7 6 3 10 17 20 19 17 16 16 16 15 13 12 11 11 10 9 9 9 9 9 8 7 7 7 7 7 8 7 7 7 7 6 5 4 3 3 2 2 2 2 2 2 2 2 2 2 2 2 2 2 2 3
20 18 16 18 20 21 21 20 18 16 15 13 13 14 12 12 13 11 10 10 10 12 13 10 9 9 7 6 5 5 8 9 5 4 5 9 17 20 18 18 18 18 18 16 14 12 11 10 9 10 10 9 8 7 6 6 6 5 5 6 6 6 6 5 4 4 3 3 3 3 3 2 2 2 1 2 1 1 1 1 1 1 1 2 2
22 19 17 17 19 21 21 20 19 17 16 15 15 15 13 12 13 13 12 12 12 14 15 14 13 12 8 7 7 7 10 11 9 8 6 3 8 13 14 18 20 21 20 18 17 14 13 12 11 11 11 10 9 7 6 6 7 6 6 6 6 6 6 5 4 4 3 3 3 3 3 3 2 2 2 1 1 1 0 0 0 1 1 2 2
23 20 18 18 19 21 20 20 20 18 17 16 15 16 14 13 14 14 13 13 13 14 16 16 14 13 11 10 9 9 10 10 10 9 7 5 4 5 9 12 15 20 22 20 18 16 14 13 12 13 13 11 10 9 8 8 8 8 7 7 7 7 7 6 5 4 4 3 2 2 2 3 3 3 3 3 2 2 1 1 1 1 2 3 4
24 21 20 18 19 21 21 21 21 19 18 17 16 17 16 15 15 15 14 14 14 15 16 15 14 13 13 14 13 11 10 8 8 9 7 5 3 3 9 12 11 16 22 23 21 18 16 14 14 15 15 13 11 11 11 10 10 10 9 9 8 7 7 6 6 5 5 4 3 2 2 2 3 3 4 3 3 3 2 1 1 2 2 3 4
26 23 22 20 19 20 21 21 21 21 19 18 18 18 18 17 16 15 15 15 15 16 15 14 14 13 13 15 16 15 12 10 11 12 8 5 4 2 7 13 14 16 21 24 23 20 18 18 18 17 16 15 12 12 12 11 10 11 11 10 9 8 7 7 7 6 6 5 5 4 3 3 3 4 4 4 3 3 2 2 2 2 2 3 4
28 26 24 22 21 21 21 21 22 22 21 20 18 18 18 18 17 16 17 17 16 16 16 15 15 13 12 15 17 16 15 13 14 16 13 9 7 5 5 8 11 14 19 23 25 23 22 21 21 20 19 17 15 13 13 13 12 12 12 12 10 9 8 8 8 8 8 7 6 6 6 5 5 5 4 4 4 4 3 3 3 3 3 4 5
31 29 27 24 23 23 23 23 22 22 22 21 19 18 19 19 19 18 18 19 17 15 17 18 16 14 12 14 15 16 15 13 14 16 14 11 8 7 5 4 5 9 13 21 25 24 24 24 22 21 21 20 18 15 15 15 13 13 13 13 12 10 10 9 9 9 9 9 8 8 8 7 7 6 6 5 5 5 5 5 5 5 5 5 6
33 32 29 26 25 25 25 24 23 22 22 22 21 19 19 20 20 19 19 20 18 15 16 18 18 15 13 13 14 14 14 14 15 15 14 12 9 8 7 3 2 5 8 16 22 20 22 26 26 24 23 22 21 18 17 17 16 15 15 14 13 12 12 11 11 10 10 10 9 9 9 9 9 9 9 8 7 7 7 7 6 7 7 7 8
34 33 31 28 27 26 26 25 24 23 22 23 23 21 20 20 21 21 20 20 19 17 15 18 20 18 16 16 15 13 13 16 16 14 13 12 10 11 10 5 1 1 4 10 16 19 22 24 26 28 26 24 24 21 19 19 18 17 17 16 15 14 14 14 13 13 12 12 11 11 11 11 11 11 11 11 11 10 9 9 9 9 9 9 10
33 33 32 30 29 28 28 27 26 25 24 23 24 24 22 21 22 23 22 21 21 19 17 17 21 21 18 17 16 13 12 16 16 14 14 13 12 12 13 11 7 2 1 5 9 16 22 22 22 27 29 27 26 24 22 21 20 18 19 19 18 16 16 16 16 15 14 14 13 13 12 12 12 13 13 13 13 13 12 11 11 11 11 11 11
33 33 33 32 30 29 29 29 28 27 26 25 25 25 25 24 24 24 24 23 22 21 19 18 20 22 21 19 18 15 14 16 16 14 14 14 14 14 14 14 12 6 3 4 6 11 19 21 21 22 25 27 27 26 25 24 22 20 21 22 20 18 17 16 17 16 16 16 15 15 14 14 14 13 14 14 15 15 14 14 13 13 12 12 13
33 33 33 33 32 31 30 30 30 29 28 26 25 26 27 26 26 26 25 24 24 23 21 20 19 21 22 22 21 20 17 17 18 16 16 15 16 17 16 16 16 13 9 6 6 12 18 21 22 20 21 23 25 27 28 26 24 22 23 23 21 19 17 17 17 17 16 16 16 16 16 16 15 14 14 15 15 15 15 15 15 14 13 13 13
33 33 33 34 34 33 31 31 31 31 30 29 27 27 27 28 28 27 26 26 26 25 24 23 21 20 21 23 24 24 22 21 20 19 18 16 16 17 18 18 18 18 17 11 6 12 18 20 22 22 21 21 22 25 29 28 26 24 24 24 22 20 18 18 18 18 17 16 16 17 17 17 17 16 15 15 15 15 15 15 15 15 14 13 13
33 33 34 34 35 35 33 32 32 32 32 31 30 29 29 30 30 30 28 27 28 28 27 25 24 22 22 23 24 26 25 24 24 23 21 20 18 17 17 19 19 19 21 18 10 12 19 19 18 20 20 20 22 24 28 29 28 26 26 25 23 21 20 20 20 19 18 17 17 17 18 18 17 16 15 14 14 14 14 14 14 14 14 13 12
34 34 35 35 36 36 35 34 33 32 33 33 32 32 32 32 32 31 31 30 29 30 29 28 26 25 25 24 24 25 26 26 27 27 26 24 22 21 19 19 21 21 22 22 17 15 19 20 18 18 18 18 21 24 26 29 29 28 27 27 25 23 23 22 22 21 21 20 19 18 18 18 17 15 14 14 13 13 12 12 12 12 12 12 12
35 35 35 36 36 36 36 35 34 33 34 34 34 33 33 33 33 33 32 32 32 32 31 30 30 29 28 27 27 25 25 26 28 30 31 29 27 25 24 22 23 24 23 24 21 17 20 24 23 22 20 19 21 23 26 29 30 30 29 29 27 26 25 24 23 22 21 21 21 21 21 19 17 16 15 14 14 13 12 12 11 11 11 11 11
37 36 36 36 36 37 36 36 35 35 35 35 35 35 35 35 34 34 34 34 34 33 33 33 33 31 31 31 30 29 27 27 28 30 31 32 31 30 29 27 26 27 26 26 24 21 21 24 25 25 24 23 22 23 25 28 30 31 31 30 29 27 26 25 25 23 21 21 22 23 22 20 18 17 17 17 16 14 13 12 12 12 11 10 10
38 38 38 37 37 37 37 36 36 36 36 36 36 36 36 36 36 36 35 35 35 35 36 35 35 34 34 34 33 32 31 31 31 31 31 32 33 33 33 32 31 30 29 28 28 26 24 23 25 26 26 26 25 23 24 28 30 32 33 32 30 29 28 27 26 24 22 21 22 23 22 21 20 18 18 18 18 16 15 14 13 12 11 10 10
37 38 38 38 37 37 38 38 38 38 38 38 38 38 38 38 38 37 37 36 36 37 37 37 36 36 36 36 36 35 34 34 34 33 33 33 33 34 35 35 34 32 31 30 30 30 28 26 28 28 26 25 26 24 25 28 31 32 33 33 32 31 30 30 29 27 24 22 22 21 20 20 20 19 18 19 19 17 16 15 14 13 12 10 10
37 37 38 38 38 39 40 40 40 40 40 39 39 39 39 39 38 38 38 37 37 37 38 38 38 37 38 38 38 37 36 36 37 36 35 34 34 35 36 36 36 34 32 31 31 31 31 31 31 30 28 26 27 27 27 28 31 32 33 33 33 33 33 33 32 30 28 26 24 23 21 21 21 20 19 19 19 18 17 16 15 15 13 11 11
36 37 37 38 39 40 41 41 41 41 41 40 40 40 40 39 39 38 38 38 38 38 38 39 39 39 39 39 39 38 37 38 39 38 36 36 36 36 37 37 36 33 32 32 32 31 31 31 30 31 31 30 28 29 28 28 30 32 33 32 32 34 35 35 35 33 31 29 27 26 24 22 21 21 21 20 19 19 18 18 17 16 14 13 13
37 37 38 39 40 40 40 41 41 41 40 40 40 40 40 40 39 39 40 39 39 39 39 39 39 39 39 39 39 39 39 39 40 39 38 38 37 37 38 37 35 33 32 32 31 30 30 30 30 30 30 29 29 29 28 26 27 31 34 33 33 33 35 36 36 35 32 31 30 29 27 25 24 23 23 22 21 21 20 19 19 17 16 15 15
39 38 38 39 39 39 40 40 41 40 39 40 41 42 42 41 41 41 40 40 40 40 39 39 38 38 38 39 40 40 40 40 41 41 41 40 39 38 38 37 36 34 33 33 31 30 30 29 29 29 27 27 28 28 28 29 31 34 34 32 32 33 32 34 36 36 33 32 31 31 30 29 28 27 26 25 24 23 22 22 21 20 19 18 16
40 40 39 38 38 39 40 40 40 39 39 40 43 44 44 43 42 41 40 40 40 39 39 38 37 38 38 39 40 41 41 41 42 42 43 42 42 42 41 39 38 36 35 34 33 32 30 29 30 29 26 26 30 31 33 35 36 35 32 31 32 32 28 27 30 34 35 34 32 33 34 33 31 29 29 28 27 25 25 25 24 22 21 19 17
40 40 39 38 38 39 39 40 40 40 41 42 44 45 46 45 44 42 40 40 39 38 38 37 37 38 38 39 39 39 40 41 42 44 44 45 45 45 44 43 42 40 38 36 35 34 32 31 32 30 27 28 33 35 36 36 35 35 35 33 32 30 26 22 23 28 34 35 34 34 36 35 33 31 32 31 29 28 28 27 25 23 22 20 17
40 40 40 40 40 39 39 40 40 41 42 44 45 46 46 46 46 43 41 39 38 37 36 37 38 38 37 38 38 38 39 40 42 43 44 45 47 47 48 47 46 46 45 43 40 36 34 34 33 32 31 32 35 36 36 37 36 36 35 34 32 32 30 27 25 28 34 35 34 34 36 36 33 32 33 33 31 31 30 28 26 24 22 20 18
38 38 40 40 40 40 39 39 40 42 44 45 46 46 46 47 46 45 42 39 38 37 37 37 38 38 38 38 37 38 39 39 40 41 42 44 46 47 49 49 49 49 49 50 48 44 41 38 36 37 38 37 37 40 41 39 37 34 32 33 34 33 32 32 34 38 38 34 32 32 33 35 34 32 34 34 32 32 31 29 26 24 23 22 19
37 38 39 40 40 41 41 41 42 42 43 45 45 46 46 46 46 45 44 41 38 38 38 38 38 38 39 38 38 39 39 39 38 39 40 42 43 44 47 49 50 52 52 53 54 51 48 44 41 43 45 42 41 46 46 40 36 36 36 36 37 37 37 40 42 42 38 34 31 28 27 32 34 33 34 34 32 32 32 30 28 25 24 22 20
38 40 40 39 40 41 42 43 42 41 43 45 44 45 46 46 45 45 45 43 40 38 39 39 39 40 40 39 39 40 40 40 39 38 39 39 39 41 42 45 48 51 53 55 56 54 53 52 50 50 51 48 47 49 47 40 39 42 42 41 42 40 39 38 37 35 33 32 32 28 24 29 33 33 34 35 33 32 32 31 30 27 24 22 21
38 38 39 39 40 40 41 42 42 42 44 44 44 44 45 45 44 44 44 44 41 40 39 39 39 40 40 40 40 40 41 41 40 39 39 38 39 39 40 42 44 46 52 57 56 54 55 56 56 56 56 54 52 51 48 44 42 43 41 40 39 35 30 28 28 31 32 31 34 33 27 26 30 32 33 34 33 33 33 32 30 27 24 23 22
37 37 39 40 40 40 40 40 41 43 44 43 42 43 43 42 43 43 43 43 42 41 41 41 40 40 40 41 41 41 41 42 40 40 39 38 39 40 39 40 40 42 51 52 47 48 53 56 58 59 59 58 55 53 51 48 46 44 38 36 36 32 27 23 22 26 30 31 35 37 31 27 29 31 32 32 32 32 30 29 29 27 24 25 24
37 38 38 38 38 38 39 40 41 42 42 41 39 39 40 40 41 42 42 42 41 41 41 41 41 41 41 42 42 41 43 43 41 41 40 38 40 41 40 39 38 43 50 45 37 41 46 48 53 57 59 60 59 57 55 52 50 47 42 41 39 34 30 26 24 25 27 32 38 37 31 29 29 30 29 26 26 30 30 27 27 27 25 24 24
37 37 35 34 35 37 38 38 39 39 38 36 34 35 37 38 39 40 41 40 39 39 39 39 41 42 41 41 40 41 43 43 42 42 40 39 41 42 42 39 39 45 48 40 35 39 40 39 44 49 54 59 60 60 61 60 57 53 51 51 45 36 33 32 30 23 17 24 36 38 33 30 30 30 29 20 12 19 28 28 26 27 27 26 25
Wind_Direction
188 185 185 182 174 174 168 161 164 170 180 183 189 194 195 193 194 194 198 206 207 200 196 197 200 192 182 178 181 187 190 192 187 178 184 186 182 179 179 181 177 172 170 167 163 161 162 163 165 169 173 175 176 175 177 179 177 178 178 178 179 180 184 187 190 192 190 196 200 196 204 222 226 230 265 293 304 310 318 326 332 336 338 341 345
193 191 192 190 180 184 181 171 172 176 183 187 188 195 198 196 201 201 200 210 215 211 203 197 199 196 189 186 188 193 195 196 191 182 182 180 179 177 179 184 182 179 179 176 174 173 173 173 173 175 180 184 184 186 191 193 193 194 193 193 194 192 197 200 198 198 197 205 210 207 219 234 236 242 256 272 286 296 304 313 315 314 319 321 322
202 196 196 193 187 190 190 190 195 192 189 190 188 191 194 192 196 200 200 204 207 211 211 201 196 193 192 191 195 198 198 200 197 189 183 175 175 175 175 183 185 184 185 186 187 189 188 186 184 183 187 191 189 191 198 200 201 204 205 207 207 205 210 214 211 211 207 211 217 218 231 243 246 252 259 268 279 289 292 298 304 304 309 309 310
208 200 197 193 191 191 189 193 196 197 193 184 184 188 192 193 194 198 202 202 201 208 214 208 199 192 192 191 195 201 200 202 203 197 191 178 173 171 172 179 183 184 189 192 196 201 202 199 197 194 195 196 196 198 202 205 207 209 213 217 219 218 222 227 227 227 226 227 229 232 241 249 255 263 268 271 277 282 285 289 293 295 300 302 304
204 199 197 191 191 191 190 188 180 184 181 174 177 185 193 197 197 201 211 220 220 219 218 215 209 197 193 190 190 198 199 201 204 201 197 186 179 176 174 178 181 182 189 196 201 205 207 208 209 207 205 204 205 207 208 210 213 215 218 223 226 226 230 236 237 236 239 241 242 245 251 255 259 263 268 273 278 281 283 285 285 287 291 296 299
199 196 197 192 190 193 191 184 177 175 172 172 182 188 196 195 193 206 225 242 244 237 224 215 212 204 197 193 188 193 197 197 199 197 197 191 186 185 181 183 184 184 190 196 201 207 210 211 214 217 216 214 213 214 216 217 219 220 220 225 229 230 235 240 242 242 246 250 252 254 257 260 262 264 268 272 275 277 279 282 283 285 286 290 294
191 191 194 192 190 193 188 182 179 173 171 180 190 188 185 180 185 199 222 231 220 229 223 210 210 207 201 198 190 188 193 194 193 191 194 192 191 191 187 187 191 193 196 198 203 208 211 214 217 220 221 221 221 221 222 224 225 225 225 228 231 233 239 244 247 247 250 254 257 259 261 264 267 269 272 275 276 276 278 281 282 283 286 287 289
185 185 188 188 189 190 183 182 181 176 180 186 189 186 174 169 171 164 165 204 177 169 191 200 208 210 206 203 194 187 189 190 189 189 191 191 191 192 191 190 194 202 206 205 208 211 214 217 219 222 223 223 224 226 227 227 229 230 228 231 234 237 241 246 251 251 253 257 259 261 262 264 267 268 270 272 275 278 280 283 284 283 285 287 287
189 189 188 186 190 194 186 186 184 178 184 188 189 187 177 171 154 119 70 129 143 127 137 161 191 205 208 209 199 189 186 184 183 187 189 187 188 190 192 191 192 204 212 213 215 217 218 218 220 222 223 224 224 226 230 231 234 237 237 236 238 239 242 248 252 257 259 262 266 266 263 262 264 266 267 270 273 279 281 283 286 287 288 289 287
198 196 196 190 187 197 194 188 186 183 190 194 191 189 186 180 163 154 115 99 98 109 126 133 145 175 196 207 201 190 185 180 179 184 183 181 184 189 191 191 193 203 210 212 214 219 219 216 218 221 222 224 224 224 227 233 236 239 244 245 246 247 248 252 254 258 262 263 270 273 269 266 265 266 270 274 276 279 282 282 286 290 290 288 287
205 202 200 196 189 195 195 188 188 189 197 199 191 188 187 184 174 171 161 100 91 112 122 122 127 148 176 193 194 186 183 179 178 179 177 178 184 190 192 192 196 204 206 207 213 220 220 217 216 219 221 221 225 224 221 228 233 237 242 244 248 250 250 254 253 253 255 260 270 272 268 265 265 268 272 275 277 279 283 284 286 291 292 289 290
209 206 200 197 193 192 189 185 185 185 198 200 188 185 188 187 177 167 161 121 104 118 120 119 123 134 156 176 184 184 182 181 182 178 175 180 187 192 196 197 197 201 202 204 212 219 220 222 221 220 222 219 222 223 222 228 228 232 240 239 243 247 249 253 252 249 253 262 267 263 260 260 263 269 272 274 275 279 283 285 286 287 290 292 296
208 206 199 198 193 186 189 189 185 184 196 200 190 187 190 186 172 164 157 133 121 127 128 123 120 123 140 161 178 186 185 184 185 183 180 183 187 192 196 197 198 200 203 203 206 210 214 219 219 220 222 222 223 220 221 225 224 231 236 230 233 236 241 249 250 251 254 254 253 253 254 251 255 263 267 267 269 276 282 288 289 287 293 301 304
208 205 201 200 192 185 192 195 191 193 195 193 191 188 187 184 172 171 170 152 141 141 146 135 122 127 132 134 154 177 189 192 190 188 187 185 185 189 191 193 196 198 203 203 202 207 216 217 213 216 222 224 225 221 220 218 217 225 223 215 220 222 225 235 241 242 242 239 232 228 230 227 233 243 245 246 251 266 274 284 297 300 302 298 297
209 207 203 201 195 190 194 200 200 201 201 192 187 186 188 189 183 183 188 172 152 147 162 159 144 144 132 123 135 151 181 196 197 196 192 187 186 187 187 190 192 192 197 202 205 213 220 221 215 216 220 220 222 223 222 214 210 216 211 204 207 208 212 221 227 226 219 212 203 190 188 196 199 195 201 223 236 261 275 284 316 306 283 287 294
210 210 207 201 198 196 197 204 205 205 206 195 187 187 187 187 185 189 190 172 154 150 163 162 156 156 140 119 143 132 160 192 197 203 198 191 192 193 189 187 189 192 197 202 208 216 221 222 221 220 219 217 217 219 221 215 208 208 207 202 198 197 203 208 206 197 186 182 177 172 172 172 170 167 155 166 139 71 49 60 68 69 65 52 32
211 213 212 205 200 199 199 202 205 207 211 204 195 192 189 185 182 185 184 174 165 159 157 154 162 170 167 144 128 137 204 180 179 199 202 197 197 197 195 192 191 192 198 203 208 217 219 216 217 219 219 217 214 216 221 222 216 206 203 201 197 197 197 193 188 178 174 178 181 182 185 174 166 163 158 146 128 112 94 84 83 79 78 73 64
211 213 215 209 203 201 200 203 207 210 215 212 204 200 196 195 191 190 188 182 179 169 163 163 165 169 173 167 172 210 196 161 146 171 199 204 206 202 200 199 197 196 198 201 205 214 214 206 206 209 213 214 212 215 219 223 222 210 200 195 192 195 195 189 185 183 185 191 198 203 200 198 183 165 154 147 136 125 110 94 87 80 77 71 62
210 213 216 213 208 204 203 207 210 211 215 214 210 206 201 201 198 196 196 194 190 180 174 173 168 167 169 162 174 196 179 166 158 149 168 208 214 208 206 207 206 203 201 200 203 210 209 202 200 200 202 202 201 210 216 211 206 200 193 186 187 192 194 197 200 203 210 213 215 216 212 213 203 181 169 159 148 137 118 99 84 71 63 49 38
211 214 216 214 211 207 206 209 210 211 215 216 213 209 203 201 199 198 201 201 198 189 182 178 176 176 173 162 159 165 173 178 178 166 145 161 207 206 207 213 214 209 205 204 205 208 205 203 201 196 195 194 190 195 203 204 202 196 191 188 189 192 193 197 203 208 217 222 222 223 220 220 218 211 207 206 211 209 225 241 45 17 13 14 5
212 216 218 216 212 208 206 207 209 211 216 218 214 209 203 200 199 201 204 201 198 196 191 189 191 188 179 169 161 154 161 178 182 173 158 150 181 198 190 200 211 209 206 207 207 208 207 208 208 202 197 195 192 189 187 193 198 193 189 189 187 189 191 191 193 195 200 206 213 224 225 222 219 218 219 224 236 243 259 279 318 342 348 350 342
211 216 220 219 213 209 207 208 210 212 216 219 215 209 206 203 204 207 209 202 196 197 198 197 201 202 192 180 172 164 158 165 181 181 170 162 176 193 176 180 198 206 206 208 209 209 209 212 214 210 207 203 199 196 191 187 189 187 184 185 185 189 193 195 196 197 200 200 201 210 222 228 223 221 225 230 238 248 258 274 304 334 345 337 330
210 216 220 220 216 210 209 210 212 213 216 219 217 211 208 207 209 213 215 211 201 198 201 200 201 205 205 195 186 181 177 179 187 187 184 173 161 182 189 192 203 209 208 209 210 210 210 215 218 214 211 209 207 205 200 195 192 191 189 187 190 197 202 207 210 209 212 212 211 213 214 218 224 224 228 233 237 244 252 267 292 320 329 330 332
209 214 218 218 216 211 211 213 215 216 217 219 220 215 211 211 213 216 217 215 211 207 207 205 203 205 210 207 202 198 196 199 196 193 197 194 185 202 209 198 211 219 214 209 210 211 213 219 222 219 215 213 212 211 209 207 204 202 202 201 203 210 214 217 219 220 222 223 223 226 226 226 228 228 229 233 235 240 250 260 275 290 301 310 318
207 212 215 215 214 211 211 214 217 219 219 218 221 220 216 214 216 219 216 214 218 221 217 210 207 207 208 208 208 209 211 212 204 200 204 202 201 214 211 198 216 220 214 209 209 213 218 223 225 223 220 218 217 218 218 217 214 211 213 215 215 221 226 227 229 230 231 232 234 237 240 240 241 241 240 241 243 246 253 258 266 274 284 294 299
208 212 215 213 212 212 212 214 218 221 222 221 221 223 221 218 219 220 216 217 223 230 225 214 209 209 208 206 210 216 219 214 206 204 206 207 216 224 211 202 224 201 199 205 207 211 218 223 226 224 225 225 224 225 225 224 222 219 220 223 223 226 232 235 238 239 238 239 241 243 246 248 249 249 248 248 249 251 256 259 264 271 278 286 290
213 214 215 213 213 213 214 216 218 221 223 223 222 224 224 222 221 222 222 223 226 231 227 215 210 209 207 207 212 221 222 213 208 209 211 214 228 235 221 206 227 223 196 201 207 214 219 222 225 225 227 230 229 231 233 231 228 224 225 227 229 230 235 239 241 242 242 241 242 244 247 250 251 252 252 252 254 254 258 261 265 272 277 282 287
217 215 215 214 213 214 215 218 220 222 224 224 223 223 224 224 224 225 225 226 228 231 228 219 215 213 211 211 213 218 216 211 212 214 219 226 236 241 232 216 206 221 252 216 216 223 224 225 226 226 229 233 234 235 237 237 233 228 228 230 233 233 236 241 243 244 246 245 245 245 247 250 252 253 254 255 256 258 260 262 265 270 275 280 285
218 217 216 215 215 214 216 218 220 223 225 226 225 223 224 226 226 227 227 228 229 230 230 227 222 217 216 216 216 217 211 210 218 222 227 236 239 241 242 233 219 201 194 224 231 224 222 223 226 228 230 232 235 237 237 238 236 230 229 232 235 236 237 241 243 245 249 249 248 248 249 252 253 255 257 257 259 260 261 263 265 269 274 279 285
218 218 217 216 216 216 217 218 220 222 225 228 227 224 224 226 227 229 230 230 229 229 230 231 229 224 221 220 220 220 215 214 221 227 230 238 242 242 244 243 235 223 206 203 236 234 224 223 228 231 234 233 234 236 237 239 237 232 231 234 238 239 239 240 241 243 248 249 248 248 249 251 253 256 258 259 261 262 262 264 265 268 272 278 284
218 218 217 216 216 216 217 219 219 221 224 227 227 224 224 226 227 228 230 230 231 230 231 231 231 230 228 225 222 222 221 219 220 226 232 236 240 243 244 242 240 237 227 212 223 241 231 228 232 234 239 243 239 235 236 239 237 233 233 236 241 243 241 240 241 241 243 245 246 248 249 250 252 257 260 260 262 261 261 262 263 265 269 274 280
218 218 217 216 215 215 217 218 219 220 222 224 226 224 224 226 227 228 230 230 231 232 233 233 232 232 233 232 228 226 225 223 221 224 229 233 237 241 245 243 239 239 235 222 221 244 238 234 237 239 242 248 246 240 238 239 237 234 234 238 242 244 242 241 242 242 242 243 244 246 247 248 252 258 260 260 260 261 260 259 260 262 265 271 277
217 218 217 216 216 216 216 218 219 220 221 222 224 224 224 226 227 229 230 230 231 232 233 234 233 233 234 235 234 232 229 227 225 225 226 230 235 237 242 244 239 236 232 225 225 244 248 243 240 242 244 248 249 245 241 239 235 232 233 237 241 243 244 245 246 245 244 243 244 246 248 249 251 251 253 254 255 256 257 257 257 259 263 268 273
216 216 216 216 216 216 216 218 219 220 221 221 222 222 223 225 226 228 229 229 230 230 231 233 233 233 233 235 236 235 232 231 230 228 227 228 231 235 238 240 239 236 233 230 228 236 248 248 245 245 246 247 249 246 242 239 235 231 231 234 238 241 244 246 247 247 247 246 248 251 252 252 246 240 243 247 249 251 252 252 252 254 257 262 268
215 216 216 215 215 216 216 218 220 221 221 222 222 221 222 224 225 226 227 227 228 228 229 231 232 232 232 234 236 235 233 234 235 233 231 230 231 235 237 238 240 239 236 235 234 235 244 251 250 247 245 246 247 245 242 239 236 233 233 237 240 241 241 242 244 247 247 248 250 253 254 250 239 235 241 244 246 249 249 248 248 248 251 257 265
216 216 217 216 216 216 217 219 220 221 222 222 221 221 223 224 225 226 226 226 227 228 229 231 232 231 230 232 236 236 233 234 237 237 235 234 234 235 238 239 240 241 240 239 239 241 244 251 254 251 247 245 246 245 241 237 235 235 237 240 243 243 241 240 242 245 245 246 250 251 250 243 235 236 242 242 243 246 247 247 246 245 247 251 259
216 217 217 218 218 218 219 220 221 222 222 222 221 221 223 224 226 227 227 227 228 229 230 232 232 231 231 232 235 235 232 233 236 238 237 237 237 237 239 240 240 242 243 241 241 242 243 247 253 256 252 246 245 244 239 235 236 237 239 241 244 244 243 241 242 243 243 244 245 242 237 234 234 239 242 240 239 242 244 245 244 244 245 248 253
216 217 217 218 218 219 221 222 222 223 223 222 222 222 223 224 225 226 228 229 230 230 231 232 233 232 232 234 236 234 232 232 235 238 238 238 238 237 239 241 241 241 242 242 242 241 242 245 250 254 253 248 244 242 239 237 238 239 240 241 243 244 243 242 241 241 241 241 240 235 231 232 235 238 240 240 238 238 241 242 241 243 244 246 250
217 217 218 218 219 220 221 222 222 223 223 222 222 223 224 224 224 225 227 229 231 232 233 233 234 234 234 236 237 235 233 234 236 238 239 239 238 238 239 241 241 240 240 241 241 240 241 244 246 249 251 250 247 244 243 241 241 242 241 240 240 241 240 240 240 240 240 240 239 236 234 235 237 238 239 242 241 239 239 240 240 242 244 244 245
218 218 218 219 219 220 221 222 223 223 222 222 223 223 224 224 225 225 226 228 230 232 233 234 234 235 236 237 238 238 237 237 238 240 240 239 239 239 240 241 239 239 239 239 239 239 240 242 245 247 248 249 248 247 245 241 237 238 238 236 237 238 238 238 240 240 240 240 240 239 237 237 239 238 237 239 241 239 238 237 237 239 242 241 240
219 219 220 220 220 220 222 223 224 223 222 222 223 224 224 224 225 226 227 227 229 231 233 235 235 236 236 238 239 240 240 240 241 243 243 243 241 240 241 240 238 237 237 237 236 236 237 240 243 245 245 245 244 242 240 235 233 236 237 234 236 240 240 240 241 241 240 240 242 242 241 241 241 239 236 237 239 238 235 234 235 238 239 238 236
219 220 220 221 221 221 222 223 224 224 223 225 226 226 226 225 225 226 227 228 229 230 232 234 236 237 238 239 240 241 242 243 244 245 246 246 245 245 245 244 240 237 234 234 234 232 233 236 239 239 239 240 240 237 237 237 236 236 236 233 235 238 239 240 244 244 240 238 239 241 243 244 244 240 238 238 239 237 234 233 235 237 238 237 235
219 220 220 221 221 222 223 224 225 224 225 227 228 228 228 228 227 226 228 230 230 230 232 233 236 238 239 240 241 242 243 243 244 246 247 247 247 248 249 248 246 242 238 234 233 231 230 233 238 237 235 238 240 238 238 239 238 235 234 232 232 233 230 231 241 244 241 236 233 237 242 245 244 240 239 239 239 238 236 236 237 238 237 237 234
219 219 220 220 221 222 223 225 226 226 227 229 229 230 230 230 229 228 228 231 232 233 233 234 236 239 240 241 243 243 243 244 245 246 246 247 248 249 250 250 249 248 246 243 239 234 231 233 237 237 235 238 242 241 238 238 237 235 234 232 230 229 227 226 231 238 242 238 230 231 239 242 241 239 239 239 239 238 239 238 237 237 237 237 236
219 220 221 221 221 222 223 225 226 227 229 230 231 231 232 233 232 230 229 231 233 234 235 236 237 239 241 242 244 244 245 245 246 246 246 247 249 249 250 250 249 249 249 249 247 243 239 236 237 239 240 238 240 243 242 239 236 234 233 232 231 230 228 229 232 236 240 237 225 224 233 238 238 238 238 238 239 239 240 239 236 237 239 240 240
220 221 222 222 222 222 223 225 227 229 230 232 232 232 233 234 234 232 231 231 233 236 237 238 239 240 242 243 244 246 247 247 246 246 246 247 248 249 249 248 248 248 249 249 249 247 244 242 240 243 246 243 242 247 248 242 236 234 232 232 232 231 230 234 238 239 240 236 225 220 228 235 235 235 237 237 238 239 240 239 239 240 242 240 236
221 222 223 223 224 223 223 225 228 230 232 233 233 234 234 235 235 235 233 232 233 236 238 240 241 242 243 244 245 247 249 249 248 247 248 248 248 248 248 248 248 248 248 248 247 246 245 244 244 246 249 249 248 251 251 246 241 240 239 238 238 236 235 238 242 241 239 236 227 219 224 233 231 231 235 237 237 238 239 240 241 241 239 235 231
222 224 224 225 226 225 225 225 227 231 234 234 234 235 236 236 236 235 234 234 234 236 239 241 242 244 245 246 247 249 250 251 251 250 250 250 249 249 248 249 250 250 251 251 249 247 246 247 247 248 251 251 251 252 252 249 246 245 242 241 241 238 236 238 240 238 236 233 227 221 222 232 230 228 233 236 236 236 238 238 237 236 232 229 229
221 223 224 226 226 227 226 225 226 230 234 235 235 235 237 236 235 235 234 234 235 237 240 242 243 245 246 247 248 249 251 253 253 253 253 251 250 250 249 251 252 252 255 255 252 250 249 249 249 250 252 253 252 252 253 251 249 246 239 236 236 231 227 230 235 234 231 230 226 220 220 229 229 226 229 233 233 234 235 233 231 228 226 226 228
221 223 225 226 228 228 228 227 227 229 233 235 236 236 237 237 236 235 234 234 236 237 240 243 245 246 247 248 249 250 252 254 255 255 255 252 251 250 250 252 253 254 256 257 255 254 254 252 252 252 253 254 252 252 252 251 250 246 238 235 235 227 222 226 231 231 231 230 226 218 215 225 228 223 222 225 229 231 228 226 226 223 220 223 224
222 225 226 228 229 230 231 231 231 231 233 235 236 236 237 237 237 237 235 235 236 238 241 243 246 248 249 250 251 251 254 256 257 256 256 253 252 252 252 251 252 255 259 260 258 257 255 253 253 252 252 253 252 250 250 249 248 245 240 239 237 228 224 227 228 225 227 231 225 215 211 219 222 216 213 209 215 228 224 222 223 219 218 220 217